Wind_Speed
124 125 126 127 127 127 127 126 126 125 124 123 121 120 120 119 119 119 118 118 118 116 113 111 110 110 111 111 110 110 109 109 108 107 107 106 106 106 105 104 103 102 102 102 102 101 101 101 101 101 102 102 101 101 100 100 99 99 100 100 100 100 99 99 98 99 100 100 100 101 101 102 102 103 104 105 106 107 108 110 110 110 111 111 112
128 129 129 130 131 131 131 131 131 131 130 129 128 127 125 124 123 123 123 123 124 124 122 119 115 114 114 114 114 114 114 114 113 112 110 110 110 110 110 110 109 108 107 107 106 106 105 105 105 105 105 105 104 104 104 103 103 103 104 104 105 105 104 104 103 103 104 104 105 105 106 106 107 107 108 108 109 110 111 112 113 113 114 115 115
131 131 132 133 134 135 135 136 136 136 135 135 134 133 132 130 129 128 127 128 128 129 129 126 122 119 118 118 118 118 118 118 118 117 116 115 115 115 115 115 114 114 113 112 112 111 111 110 110 110 110 109 109 108 107 107 106 106 107 108 109 109 109 108 107 108 108 109 109 109 110 110 111 111 112 112 112 113 114 114 115 116 117 117 118
133 134 135 136 137 138 139 140 141 141 140 139 137 136 135 134 133 132 132 132 132 132 132 130 127 123 122 121 121 121 121 121 121 121 121 121 120 120 120 120 120 119 118 118 117 117 116 116 115 115 115 114 113 112 111 110 110 110 111 112 112 113 113 112 111 111 112 113 113 114 114 115 115 115 115 116 116 116 116 117 117 118 119 119 119
133 133 134 135 136 137 138 139 140 141 141 140 138 137 135 134 133 132 132 132 132 132 131 129 127 125 124 123 123 123 123 124 124 124 124 124 124 124 124 124 124 123 123 123 122 122 121 121 121 121 121 120 118 117 116 115 115 115 115 115 116 117 117 116 115 115 115 116 117 118 118 118 118 118 118 118 118 118 118 119 120 121 121 122 121
130 130 130 130 131 132 133 133 134 135 136 137 137 136 134 133 131 130 129 129 129 128 128 127 125 124 123 123 124 125 125 126 126 127 128 128 128 127 127 127 127 127 127 127 128 128 127 127 127 127 126 125 123 122 121 120 120 119 119 120 120 121 120 120 120 120 120 120 121 121 121 121 121 121 121 121 120 120 121 122 123 124 124 124 123
126 126 126 126 126 126 127 128 128 128 130 131 133 133 133 131 130 128 127 126 125 125 124 123 122 122 122 122 123 124 126 127 128 129 130 131 131 131 131 130 130 130 130 132 133 134 134 133 133 132 131 129 128 127 126 125 124 124 124 125 125 125 125 124 125 125 124 124 124 123 123 123 122 122 123 123 123 123 124 125 125 126 126 126 124
122 122 122 121 121 121 122 122 122 123 123 125 126 128 129 129 128 127 125 124 123 122 122 122 121 120 120 120 121 122 125 127 129 131 132 133 134 134 134 134 134 134 134 135 137 137 136 134 133 133 132 130 130 131 131 131 131 130 130 131 131 131 130 129 129 130 129 128 127 126 125 124 124 124 124 125 125 125 126 127 126 127 128 127 126
118 118 118 118 118 117 118 118 119 119 119 120 121 123 124 126 126 126 125 123 121 120 120 121 121 121 120 119 119 121 122 125 127 130 131 133 134 135 136 136 136 136 136 137 136 135 133 131 130 129 128 126 125 126 128 129 130 131 131 132 133 133 132 131 130 130 130 130 129 127 126 125 125 125 125 126 126 126 126 126 126 127 128 128 128
116 117 117 117 117 116 116 116 117 117 118 118 118 119 120 122 123 124 124 123 121 120 119 120 120 120 120 120 119 120 121 122 124 126 128 130 131 132 133 134 134 134 134 133 132 130 127 125 124 124 123 121 120 120 121 121 122 123 125 126 127 127 128 127 127 127 128 128 128 128 126 125 124 125 125 126 126 125 125 125 126 127 128 128 127
115 116 116 116 117 117 116 116 116 116 117 117 117 117 118 119 120 121 122 122 122 121 120 119 119 120 120 119 119 119 120 121 122 123 125 126 127 128 128 129 130 129 128 127 125 123 121 119 118 118 118 117 116 117 117 117 116 117 118 119 120 120 121 122 123 124 124 125 126 126 125 124 124 124 124 125 125 124 124 125 125 125 126 126 125
112 113 114 114 115 115 115 115 116 116 116 116 117 116 116 116 117 119 120 121 121 121 120 120 119 119 119 118 118 118 118 119 120 121 122 123 124 125 125 125 126 125 124 123 121 119 117 115 115 115 116 115 115 115 114 114 114 115 115 116 116 117 117 118 119 121 122 124 125 125 125 124 124 124 124 124 123 122 122 122 122 123 124 125 124
109 110 111 111 112 112 113 113 114 115 115 115 115 115 115 115 115 116 117 118 119 120 120 120 119 119 118 117 117 116 116 117 117 118 119 120 121 122 122 122 122 122 121 120 119 117 115 114 113 114 115 114 114 113 113 113 113 113 114 115 116 117 116 117 118 119 121 122 123 123 123 123 122 122 122 121 120 119 119 119 121 122 123 123 123
106 107 108 109 109 110 110 111 112 113 114 114 114 114 114 114 114 114 115 116 117 118 119 119 118 118 118 117 116 115 115 115 115 116 116 117 118 119 120 120 120 120 119 118 117 116 115 114 114 114 114 114 113 113 112 113 113 113 115 116 117 117 116 116 116 117 119 121 121 121 122 122 121 120 121 120 120 119 118 119 120 121 123 125 125
105 105 106 106 107 109 109 110 110 111 112 113 113 114 114 114 114 114 113 114 115 117 118 118 118 118 118 118 117 116 116 116 115 115 115 115 116 117 117 118 119 118 118 116 116 115 115 114 114 114 114 114 113 112 113 113 114 115 116 117 117 116 115 115 115 117 118 120 121 122 122 122 121 120 121 121 121 120 119 119 121 123 125 126 126
106 106 106 105 106 107 108 109 110 110 111 112 112 113 114 115 115 115 114 114 114 115 117 118 118 118 118 118 117 117 117 117 116 115 115 114 114 115 115 116 116 117 117 116 115 115 115 114 113 113 113 112 112 112 112 114 115 116 117 117 116 115 115 115 115 116 118 119 120 121 122 122 122 121 121 122 122 122 121 121 122 124 125 126 126
106 107 106 106 106 107 108 109 109 110 110 111 111 112 114 115 116 116 115 114 114 115 116 117 118 119 119 119 118 117 117 117 117 116 116 115 115 114 114 114 115 115 115 116 116 116 115 114 113 112 112 112 112 112 113 114 115 116 116 116 115 115 114 115 115 116 117 119 120 121 122 122 122 122 122 122 123 123 123 122 122 123 124 124 124
105 105 105 105 106 107 109 109 109 110 110 110 110 110 112 113 115 116 116 116 115 115 115 116 117 118 119 120 120 119 119 119 118 117 116 116 116 115 115 115 114 115 115 116 117 117 116 115 114 113 113 113 113 114 115 115 116 117 116 116 115 114 114 115 115 116 117 119 119 120 121 122 122 122 122 122 122 123 122 121 121 120 121 121 121
104 103 103 103 105 107 108 109 110 110 111 111 111 110 110 111 112 114 115 116 116 116 115 115 115 117 118 119 120 121 121 121 120 119 117 116 116 116 116 116 115 115 116 117 118 117 117 117 116 115 115 115 115 116 116 117 117 118 118 116 115 113 114 115 115 116 118 119 119 120 120 121 121 120 120 121 121 121 120 119 118 117 117 117 117
102 101 101 102 103 105 106 107 108 109 110 110 111 111 111 111 111 112 114 114 115 115 115 115 115 115 117 118 119 120 121 121 121 121 119 118 117 117 117 116 116 117 117 118 118 118 118 118 118 117 117 117 118 118 119 119 119 119 119 117 115 114 114 115 116 117 119 120 120 120 120 120 120 119 119 119 119 119 119 118 117 116 116 116 115
99 99 100 101 102 103 105 106 106 107 107 108 108 109 110 111 111 111 112 113 114 114 115 115 115 115 116 117 118 119 120 121 121 121 121 120 119 118 117 116 116 118 119 119 119 119 119 119 119 119 119 119 120 121 121 121 121 121 120 118 117 117 117 117 118 119 120 121 121 120 121 121 120 119 119 119 118 118 118 117 117 116 115 115 115
95 96 97 98 100 101 103 104 104 104 105 105 105 104 106 108 109 110 110 111 112 113 114 115 115 115 116 117 118 118 119 120 121 121 121 121 120 119 117 116 116 117 118 119 119 119 119 119 119 119 119 119 120 121 122 122 122 121 121 121 120 120 120 120 120 121 121 121 121 121 121 120 119 119 118 118 118 118 117 117 116 116 116 116 116
93 93 93 95 97 99 100 101 101 101 101 102 101 101 101 103 105 106 107 109 110 111 112 113 114 114 115 117 118 118 118 119 120 120 120 121 121 120 118 117 117 117 116 117 117 118 119 119 119 119 119 119 119 120 121 121 121 121 121 121 121 121 120 120 120 120 120 120 120 120 120 118 118 118 118 117 117 116 116 116 116 116 116 116 116
91 91 92 93 95 96 98 98 98 99 99 99 98 97 97 99 100 101 103 104 106 107 108 110 112 112 113 115 117 118 119 119 119 119 119 120 120 120 119 118 118 117 116 116 116 116 117 118 119 119 119 119 119 120 120 120 119 119 119 119 119 118 117 118 118 119 119 120 119 118 117 117 117 117 117 116 116 115 114 115 115 114 114 115 115
91 91 92 92 94 95 96 96 97 97 97 97 96 95 95 96 97 98 99 100 101 102 104 106 109 110 111 112 114 117 119 120 119 118 118 119 119 120 120 120 119 118 118 117 116 116 116 117 118 118 119 119 119 119 119 118 118 117 116 117 117 115 114 115 117 118 118 118 117 116 115 116 117 117 116 115 115 114 114 114 114 114 113 114 114
89 90 91 92 93 94 95 95 95 96 96 96 95 93 93 94 95 95 96 97 97 97 99 101 104 106 107 109 111 113 116 118 119 119 118 118 118 119 121 121 121 120 118 117 117 116 116 117 117 118 119 119 118 118 117 117 116 115 115 116 115 113 113 115 116 117 116 116 115 114 114 115 116 117 115 114 114 114 113 113 113 113 113 113 113
87 87 88 90 91 92 92 92 93 93 94 95 94 93 93 93 93 93 94 95 95 95 95 97 99 101 103 105 107 110 112 114 116 118 119 119 118 119 120 121 121 120 119 118 117 117 118 118 118 119 119 119 118 118 117 117 116 115 114 114 113 112 112 114 114 115 115 115 114 113 114 115 116 115 114 114 115 115 114 113 113 113 114 114 114
83 84 85 87 88 88 89 89 90 90 91 92 93 93 93 92 92 91 91 93 93 93 93 94 95 97 99 100 102 105 107 110 112 115 118 119 120 120 119 118 118 119 119 118 119 119 119 119 119 119 119 119 118 118 118 117 116 115 113 112 112 111 111 112 114 115 115 115 114 115 116 116 114 113 114 114 115 115 114 114 114 114 115 116 116
80 81 82 83 83 84 85 86 86 87 88 89 90 90 91 91 90 89 89 90 91 90 90 91 91 93 96 97 98 100 101 104 108 111 115 117 118 119 119 118 117 117 118 118 119 119 119 118 119 119 119 119 119 119 119 118 117 115 113 112 112 111 111 112 114 115 116 116 117 117 117 116 114 114 115 115 115 115 116 116 116 116 116 117 118
78 78 79 79 80 80 81 82 83 84 84 85 86 87 87 88 88 87 87 88 89 89 88 88 88 90 92 93 95 96 97 99 104 108 110 113 115 116 117 118 118 117 117 117 117 118 117 116 117 118 118 118 118 118 118 118 117 116 114 113 112 112 112 113 115 116 117 118 118 118 118 116 115 115 116 116 116 117 117 118 118 118 118 118 119
76 77 77 77 77 78 79 79 80 80 81 82 82 83 84 84 85 84 84 85 86 86 86 85 85 87 88 88 90 93 95 97 102 105 106 108 111 112 113 115 116 117 117 116 116 116 115 114 114 115 116 116 116 116 117 117 117 116 115 113 113 112 112 113 115 117 118 118 118 118 117 116 115 116 117 117 118 118 119 119 119 119 119 119 119
75 75 75 75 75 77 77 77 78 78 78 79 79 80 80 81 81 81 80 80 81 82 83 83 83 83 84 84 85 88 91 94 99 103 104 105 107 108 109 110 112 115 116 115 114 115 114 113 113 113 113 114 114 114 115 115 116 116 115 114 113 113 112 113 115 117 118 118 118 117 117 116 116 117 118 119 119 120 120 120 120 119 119 119 119
73 73 73 72 73 74 75 76 76 76 76 77 77 77 77 77 78 78 77 76 76 77 79 80 80 80 81 82 83 85 87 90 94 98 101 102 104 105 106 106 107 110 111 111 111 112 113 113 112 112 112 112 112 112 113 114 115 116 116 115 115 113 113 114 116 118 118 117 117 116 116 116 116 117 119 120 121 121 121 120 120 119 119 119 119
71 71 71 70 70 71 72 73 74 74 74 74 74 75 75 75 75 75 75 73 71 71 72 74 76 77 77 79 80 82 84 87 89 92 95 98 100 102 103 103 103 104 104 104 105 108 110 111 111 111 111 111 111 111 112 114 116 116 117 116 116 114 114 115 117 118 117 117 116 116 117 117 117 118 119 120 121 121 121 120 119 119 120 120 120
68 68 68 68 68 68 69 70 71 71 71 71 71 72 72 72 72 72 72 71 69 68 67 68 70 71 73 75 76 78 81 85 87 88 89 91 94 97 99 99 98 98 97 97 99 103 106 108 109 109 110 111 111 112 113 115 116 117 117 117 116 115 115 117 118 118 118 118 117 117 117 117 118 118 119 120 121 121 120 120 120 120 121 121 120
65 65 65 65 65 66 66 66 67 68 68 68 69 69 69 69 69 69 69 69 68 66 64 63 64 66 67 70 73 75 78 81 84 85 87 87 88 90 91 91 92 94 93 92 94 98 102 104 105 106 108 109 111 112 112 114 116 117 117 116 116 116 117 118 118 118 118 118 118 118 118 117 117 118 119 120 121 121 120 120 121 121 121 121 122
62 62 62 63 63 63 62 62 63 64 65 66 66 66 66 65 65 65 66 66 65 64 63 61 61 61 63 65 69 72 75 77 79 82 84 84 84 83 83 84 87 88 89 89 91 94 98 100 101 102 104 107 110 111 111 112 114 116 116 115 116 116 117 118 118 118 119 119 119 119 118 118 118 119 119 120 120 120 120 121 121 121 122 122 123
58 59 60 60 60 60 59 59 60 61 62 62 63 63 63 62 62 62 62 62 62 62 61 60 59 59 60 62 65 67 70 72 74 77 79 80 81 80 80 82 84 84 83 84 87 92 96 98 98 100 102 105 107 108 109 110 112 113 114 114 115 115 116 117 118 119 120 120 120 119 119 119 119 118 118 119 119 120 120 121 121 122 123 123 124
55 55 56 56 56 56 56 57 57 58 58 59 59 60 60 60 59 59 59 59 59 59 59 58 58 57 58 59 61 63 65 67 70 72 74 76 78 79 79 80 81 80 79 80 83 88 93 95 97 99 101 103 105 106 106 107 108 109 110 110 111 113 115 117 118 119 120 120 120 119 118 118 118 117 118 119 119 120 120 121 121 123 123 124 124
53 53 52 52 52 52 53 54 55 55 55 55 56 57 57 57 56 56 56 56 57 57 56 57 56 56 57 57 58 60 62 64 67 69 70 73 75 76 77 78 78 78 76 76 79 85 90 93 95 97 99 101 103 104 104 104 104 105 105 105 107 109 113 115 117 118 118 118 117 116 116 116 116 116 117 118 119 119 120 121 121 122 123 123 122
51 51 50 50 50 50 50 51 52 52 52 52 53 54 54 54 54 54 54 54 55 55 55 55 55 55 56 56 57 58 59 61 64 66 68 70 72 73 74 75 76 76 75 74 77 82 87 90 93 96 99 101 102 101 100 100 99 100 101 102 104 106 109 112 114 114 113 113 112 112 112 113 113 114 115 116 117 117 118 119 119 120 120 119 119
50 50 49 49 48 48 48 49 49 49 50 50 50 51 51 51 52 52 52 52 53 53 53 53 53 53 54 55 55 56 57 59 61 63 66 68 70 70 71 72 73 74 73 73 76 81 85 89 92 95 98 98 98 97 96 96 96 97 98 99 101 103 105 107 109 109 108 108 108 109 109 110 110 111 112 113 114 114 115 116 116 116 115 115 114
48 48 48 47 47 47 47 47 47 47 47 48 48 49 49 49 49 49 50 51 51 51 52 52 51 52 53 53 54 55 56 58 60 62 64 66 67 68 70 71 72 72 72 73 75 79 84 89 92 93 93 93 92 92 92 93 94 95 96 97 98 99 101 103 104 105 105 105 106 106 107 107 108 109 109 110 111 111 112 112 112 112 111 111 110
47 47 46 46 46 46 46 46 46 46 45 45 46 46 47 47 47 47 48 48 49 50 50 50 50 50 51 52 53 54 55 57 58 61 63 65 66 67 68 69 70 71 71 72 75 78 83 86 88 88 87 87 88 89 90 91 92 94 94 95 96 97 98 100 102 103 103 104 104 105 105 105 106 106 106 107 108 108 109 109 108 108 108 107 107
46 46 45 45 44 44 44 45 45 44 44 44 44 44 45 46 46 46 46 46 47 48 48 48 49 49 49 50 51 53 54 55 57 59 61 63 64 65 66 67 69 70 70 71 73 76 80 82 83 83 84 84 85 86 88 89 91 92 92 93 94 95 96 98 99 101 102 102 103 103 103 103 103 103 104 104 105 106 106 106 105 105 105 104 104
45 44 44 44 43 43 43 43 43 43 43 43 43 43 43 43 44 45 45 45 46 46 46 46 47 47 48 48 49 51 52 54 56 58 60 62 63 65 66 66 67 68 69 70 71 73 76 78 80 81 82 83 83 85 86 88 89 90 90 91 92 93 94 96 97 98 99 100 101 101 101 101 101 101 101 102 103 103 103 103 102 102 102 101 101
45 44 43 42 42 42 42 41 41 42 42 42 42 42 42 42 42 43 44 44 44 45 45 45 45 46 46 47 48 49 50 52 54 56 59 61 62 64 65 66 66 67 68 68 70 71 73 76 78 80 82 82 83 85 85 86 87 88 88 89 90 91 92 93 94 95 97 97 98 99 99 98 99 99 100 100 101 101 101 100 100 99 99 98 98
44 44 43 42 41 40 40 40 40 40 40 41 41 41 41 41 41 41 42 43 43 43 44 44 44 45 45 45 46 47 49 51 52 54 57 59 61 62 64 65 66 66 67 68 68 69 71 74 76 78 80 82 83 83 84 84 85 86 86 87 88 89 91 92 93 94 95 96 96 97 97 97 98 98 98 99 99 98 98 98 97 96 96 95 95
42 42 41 41 40 40 39 39 38 38 38 39 39 40 40 40 40 40 41 41 42 42 43 43 43 44 44 44 45 45 47 48 50 52 55 57 59 61 62 63 64 65 66 67 67 68 70 71 73 75 77 79 80 81 82 82 83 84 85 86 87 88 89 91 91 92 93 94 94 95 96 96 97 97 97 97 97 96 96 95 94 94 93 92 92
39 39 39 39 39 39 38 38 37 37 37 37 37 38 38 39 39 39 39 40 40 41 41 41 42 42 43 43 44 45 45 47 48 50 52 55 57 59 60 62 63 64 65 65 66 67 68 69 71 72 74 75 77 78 80 81 82 83 84 85 86 87 88 89 89 90 91 92 93 93 94 94 95 95 95 95 94 94 94 93 92 91 91 90 90
37 36 36 36 36 36 36 36 36 36 36 36 36 36 37 37 38 38 38 38 39 39 39 40 40 41 41 42 43 44 45 46 47 48 50 52 54 56 58 60 61 62 63 64 65 66 67 68 69 70 71 73 74 75 77 78 80 81 82 83 84 85 85 86 87 88 89 90 91 91 91 92 92 92 92 92 92 92 91 90 89 89 89 89 89
Wind_Direction
272 272 272 273 273 273 273 273 273 273 273 272 271 271 270 270 270 269 269 269 268 267 266 264 262 261 260 260 260 260 260 260 261 261 261 261 261 260 259 259 259 259 259 259 260 260 260 261 261 262 263 264 264 265 266 266 266 267 267 267 268 268 268 269 270 270 271 271 271 271 272 272 272 272 272 273 273 274 275 275 276 277 277 278 279
271 271 271 272 272 272 272 272 272 272 272 272 271 271 270 269 269 268 268 268 268 268 268 267 264 261 259 258 258 259 259 259 260 260 260 260 260 260 260 260 259 259 259 259 259 259 260 260 261 261 262 263 263 264 265 266 266 267 267 268 268 268 268 269 269 270 271 271 272 272 272 272 272 273 273 274 274 275 275 276 277 278 278 279 280
269 269 269 270 270 271 271 271 271 271 271 270 270 270 269 268 268 267 267 266 266 267 267 267 266 263 259 257 256 257 257 258 258 258 258 258 258 259 259 259 259 260 260 259 259 259 260 260 260 261 261 262 262 263 264 265 266 267 268 268 268 269 269 269 269 270 270 271 272 272 272 273 273 273 274 274 275 275 276 277 278 279 280 281 281
268 267 267 268 268 268 269 269 269 269 269 269 268 268 268 267 267 266 266 265 265 266 266 266 265 263 261 258 256 256 256 256 257 257 258 257 258 258 258 259 259 259 259 259 260 260 260 260 260 261 261 261 262 262 263 264 265 266 267 268 268 269 269 269 269 270 270 271 271 272 272 273 273 274 274 275 276 277 278 279 280 281 281 281 282
266 266 266 266 266 266 267 267 268 268 268 268 268 267 267 266 266 265 264 264 264 264 264 264 263 262 260 258 257 255 255 255 256 256 257 257 258 258 259 259 259 259 259 259 259 259 260 260 261 261 261 261 261 262 263 263 264 265 266 267 268 268 269 269 270 270 270 271 271 271 272 273 273 274 275 276 277 278 279 280 280 281 281 281 281
266 265 265 265 265 265 265 266 266 267 267 268 268 267 267 266 265 264 264 263 263 263 263 262 262 261 260 258 257 256 255 255 255 256 256 257 257 258 258 259 259 259 259 259 259 259 260 260 260 260 260 260 261 262 262 263 264 265 266 267 268 268 269 270 271 271 271 271 271 271 272 273 273 274 275 276 277 278 279 279 280 280 280 280 281
266 266 265 265 264 264 264 264 264 265 265 266 266 267 267 266 265 264 264 263 262 262 262 261 261 260 259 259 257 256 255 254 255 255 256 256 257 257 257 258 258 258 259 259 260 261 262 261 261 260 260 260 260 261 262 263 264 265 266 267 267 268 269 270 270 270 270 270 270 271 271 272 273 273 274 275 276 277 278 278 278 279 279 280 280
266 266 266 265 264 264 264 264 264 264 264 264 265 265 266 266 265 265 264 263 262 262 261 261 260 259 259 258 258 257 256 255 255 255 255 256 256 257 257 258 258 259 259 260 261 262 263 263 263 262 262 261 261 261 261 262 262 264 265 266 266 267 268 268 269 269 269 269 269 270 270 271 271 272 273 274 275 276 276 277 277 278 279 279 280
266 266 265 265 265 264 264 263 263 263 263 263 263 264 264 265 265 265 265 263 262 262 261 261 261 260 259 258 258 258 257 257 256 256 256 256 256 257 257 258 258 259 260 261 262 263 263 264 264 264 264 263 262 262 261 261 262 263 264 264 265 266 266 267 267 267 268 268 268 269 269 270 270 271 272 273 274 275 275 276 276 277 278 278 279
266 266 265 265 265 264 264 263 263 263 263 263 262 263 263 264 264 264 265 264 264 263 262 261 261 261 260 260 259 258 258 258 258 258 258 258 258 258 258 258 258 259 260 261 262 263 263 263 264 264 263 263 263 262 262 262 262 263 263 263 264 265 265 266 266 266 266 267 268 268 269 269 269 270 271 272 273 273 274 275 275 276 277 277 278
264 264 264 264 264 264 264 263 263 262 262 262 262 262 262 262 263 263 264 264 264 263 262 262 261 261 260 260 259 259 259 258 258 259 259 259 259 259 259 259 259 260 260 261 262 262 263 262 262 262 262 262 262 262 262 262 262 262 263 263 263 264 264 264 265 265 265 266 267 267 268 268 269 269 270 271 272 273 273 274 275 275 276 277 278
262 262 263 263 263 263 263 263 263 262 262 262 262 262 261 261 262 262 262 262 263 263 263 262 261 261 260 260 259 259 258 258 258 258 259 259 260 260 260 260 260 260 261 261 261 261 261 260 260 260 260 260 260 261 261 261 262 262 262 262 262 262 262 263 264 264 265 265 266 267 268 268 269 270 270 271 272 272 273 273 274 275 276 277 278
262 262 262 261 261 262 262 262 262 262 262 262 261 261 261 261 260 260 261 261 261 261 261 262 262 261 261 260 259 259 258 258 258 258 258 258 259 259 260 260 260 260 260 260 261 260 260 259 258 258 258 258 259 259 259 260 260 260 261 261 261 261 261 262 263 264 265 266 266 267 268 268 269 270 270 271 271 271 272 273 273 274 275 276 277
261 261 261 261 261 260 260 260 260 260 260 261 261 260 260 260 260 259 259 259 260 260 260 260 260 261 261 261 260 259 259 258 257 257 257 257 257 258 258 259 259 259 260 260 260 260 260 259 258 257 257 257 257 258 258 258 258 259 259 260 261 261 262 262 263 264 265 265 266 267 267 268 268 269 269 270 270 270 271 272 273 274 274 275 277
263 262 261 260 260 260 260 259 259 259 259 259 259 259 259 259 259 259 258 258 258 259 259 259 259 259 260 260 260 260 259 259 258 258 257 257 257 257 257 258 258 259 259 259 259 259 259 259 259 258 258 258 257 257 257 257 257 258 259 260 261 262 263 263 263 263 264 264 265 266 266 267 267 267 268 269 269 270 270 271 272 273 274 275 276
264 264 263 262 261 260 260 259 259 258 257 257 257 258 258 258 258 259 258 258 258 258 258 258 259 259 259 259 259 259 259 259 259 258 258 257 257 256 256 257 257 258 258 258 258 259 259 259 259 259 259 258 258 258 257 257 257 258 259 260 261 262 262 262 263 263 263 264 264 265 266 266 266 267 268 268 269 269 270 271 271 272 274 275 276
263 263 263 263 262 262 261 260 259 258 257 257 256 256 256 257 257 258 258 258 257 257 257 257 257 258 258 258 258 258 258 258 258 258 258 258 257 257 256 256 256 256 257 257 257 258 258 258 258 258 258 258 258 258 257 257 258 258 259 260 261 262 262 262 262 263 263 263 264 264 265 265 266 267 267 268 269 270 271 271 272 273 274 276 277
264 263 263 263 262 262 262 261 261 260 259 258 257 256 255 255 255 256 256 257 257 257 256 256 257 257 257 257 258 257 257 257 257 257 257 257 257 257 256 255 255 255 255 256 256 257 257 257 257 257 257 257 257 257 257 258 258 259 259 260 261 262 262 263 263 263 264 264 264 265 265 266 266 267 268 269 270 271 272 272 273 274 275 276 278
266 266 265 264 263 263 262 261 261 261 260 260 259 258 256 255 255 255 255 255 255 256 256 256 256 256 256 257 257 257 257 256 256 256 256 256 255 256 256 255 255 255 254 255 255 255 256 256 256 256 256 256 256 257 257 257 258 259 259 260 260 261 262 262 263 264 264 265 265 266 266 267 268 268 269 270 271 272 273 274 274 275 276 277 278
268 268 267 266 265 264 263 262 261 261 260 260 259 259 259 257 256 256 255 255 255 255 255 255 255 255 255 255 256 256 256 256 256 256 256 255 255 254 255 255 255 254 254 254 254 255 255 255 255 255 255 256 256 256 257 257 258 259 260 260 261 261 261 262 262 263 264 265 266 266 267 267 268 269 269 270 271 272 273 274 274 275 276 276 277
270 269 268 267 266 265 265 264 263 262 261 260 259 259 259 258 258 257 257 256 256 255 255 255 255 254 254 254 254 255 255 255 256 256 256 256 255 254 254 254 254 254 254 254 255 255 255 255 255 255 255 255 256 257 257 258 259 260 261 261 261 261 261 262 262 263 264 265 266 267 267 268 269 270 270 271 272 272 273 274 274 275 276 276 277
270 270 269 269 268 267 266 265 264 264 263 262 260 259 258 258 258 258 257 257 257 256 256 255 255 255 254 254 254 254 254 254 255 255 256 256 256 255 255 254 253 253 253 254 254 255 255 255 255 256 256 256 256 257 258 259 259 260 261 261 261 262 263 263 264 264 265 266 267 267 268 269 270 271 271 271 272 272 273 274 274 275 276 276 277
271 271 270 269 268 268 267 267 266 265 265 264 263 262 260 259 258 258 257 257 256 256 256 256 255 255 255 255 255 254 254 254 254 254 254 255 255 256 255 255 254 254 253 253 253 254 254 255 256 256 256 256 257 257 258 258 259 260 260 261 261 262 263 264 264 265 265 266 267 268 269 270 271 271 271 271 272 272 272 273 273 274 275 276 277
272 272 271 270 269 269 268 268 267 266 266 265 264 263 262 261 260 258 257 256 256 255 255 255 255 255 254 254 255 255 255 255 254 254 254 254 255 255 255 255 255 254 254 253 253 253 253 254 254 255 256 256 256 257 257 258 258 259 260 260 261 261 262 263 263 264 265 266 267 269 270 271 271 271 271 271 271 271 272 272 273 274 274 275 276
273 272 271 270 269 269 268 268 267 267 266 265 264 263 262 261 260 259 258 257 256 255 255 254 254 254 254 253 253 254 255 256 255 255 254 253 254 254 255 255 255 254 254 254 253 253 253 253 254 254 255 255 256 256 257 257 258 258 259 259 260 261 261 262 262 263 265 266 268 269 270 270 270 270 270 271 271 272 272 273 273 274 275 275 276
273 272 271 270 270 269 268 268 267 267 267 266 265 263 262 260 259 258 258 257 256 255 254 254 254 254 253 253 252 252 253 254 255 256 255 254 253 253 254 254 254 254 254 254 254 253 253 254 254 254 255 255 256 256 257 257 258 258 258 259 260 261 261 262 263 264 265 266 267 268 269 269 269 270 270 271 271 272 272 272 273 274 275 275 276
273 272 271 271 270 269 268 268 267 267 267 267 266 265 263 262 260 258 258 257 256 254 253 252 252 252 253 252 252 252 252 252 253 254 255 255 255 254 253 253 254 254 254 254 253 253 253 253 254 254 255 255 256 256 257 257 258 258 258 259 260 261 261 262 263 265 265 266 267 267 268 268 268 269 270 270 271 271 272 273 273 274 275 276 276
273 272 271 270 270 269 269 268 268 267 267 267 266 266 265 264 263 261 260 258 257 255 254 252 252 251 251 251 251 251 251 251 252 252 253 254 254 255 254 254 253 254 253 253 253 253 252 253 254 254 255 256 256 257 257 258 258 258 259 259 260 261 261 262 263 264 265 266 266 266 266 267 267 268 269 269 270 271 272 273 273 274 275 276 276
274 272 271 271 270 270 269 269 268 268 267 267 266 266 266 266 265 264 263 262 260 259 257 255 253 252 251 251 251 250 250 251 251 251 251 252 252 253 254 255 254 254 253 253 252 252 252 253 253 254 255 255 256 257 257 258 259 259 259 259 260 260 261 261 262 262 263 264 264 265 265 266 267 268 269 269 270 271 272 272 273 274 275 276 276
275 274 273 272 271 270 270 269 268 268 267 267 266 266 265 265 265 264 264 263 262 261 259 257 255 253 252 252 251 251 250 250 250 250 251 251 252 252 252 253 254 254 254 253 253 253 253 252 253 253 254 254 255 256 257 258 259 259 259 259 259 259 259 260 260 261 261 262 263 264 265 266 267 268 268 269 270 270 271 272 273 274 275 275 276
276 275 274 273 273 272 270 269 269 268 267 267 266 266 265 265 264 264 263 262 262 261 260 259 257 255 254 252 251 251 250 249 250 250 250 251 251 251 251 251 252 253 254 254 254 253 253 253 253 253 253 254 255 255 256 257 258 259 259 259 258 258 259 259 259 260 261 261 263 264 265 266 266 267 268 268 269 270 271 272 273 274 275 275 276
277 276 275 274 273 273 272 271 270 269 268 268 267 267 266 266 265 264 263 262 262 261 261 259 258 256 255 254 252 251 250 249 249 250 250 250 251 251 251 251 251 252 252 253 253 253 254 254 254 253 253 254 254 255 256 256 257 258 258 258 258 258 258 258 259 259 260 261 263 264 265 265 266 267 268 268 269 270 271 272 273 274 275 276 277
277 276 275 275 274 273 272 272 271 270 269 269 269 268 267 267 266 266 265 263 262 261 261 260 259 257 256 254 253 251 250 249 249 250 250 251 251 251 251 251 250 251 251 252 252 252 253 254 254 254 254 254 254 254 255 256 256 257 257 258 258 258 258 259 259 260 261 262 263 263 264 265 266 266 267 268 269 270 271 273 274 275 276 276 277
278 277 276 275 274 273 273 272 272 271 270 269 269 269 269 268 268 267 267 265 263 261 260 259 259 258 256 255 254 253 251 250 250 250 250 250 251 252 252 252 251 251 251 251 252 252 252 253 254 254 254 254 254 254 254 254 255 256 256 257 258 258 258 259 259 260 261 262 262 263 263 264 265 266 267 268 269 271 272 273 274 275 276 277 277
278 278 277 276 275 274 273 272 272 271 271 270 269 269 269 269 268 268 267 266 265 263 260 258 258 257 256 255 254 253 252 252 251 251 250 250 251 251 252 253 253 253 252 251 251 251 252 253 253 254 254 254 254 253 253 253 254 255 256 257 257 258 258 258 259 260 261 262 262 263 263 264 265 266 267 269 270 271 272 273 274 275 276 277 278
280 279 278 276 275 274 273 273 272 272 271 271 270 269 268 268 268 268 268 267 267 265 262 260 257 256 255 255 254 253 252 252 252 253 253 252 251 251 252 253 253 253 253 251 250 250 251 252 252 253 253 253 253 253 253 253 254 254 255 256 257 257 258 258 259 260 261 262 263 263 264 265 266 266 267 268 270 271 272 273 274 275 276 277 278
281 280 279 277 276 275 274 273 273 272 271 271 270 269 269 268 268 268 268 267 267 266 264 261 258 256 254 253 253 252 252 252 252 252 253 254 254 253 253 253 252 252 251 251 249 249 250 251 252 252 252 253 253 253 253 253 254 254 255 256 256 257 257 258 259 260 261 262 263 264 264 265 266 266 267 268 270 271 272 273 274 275 276 277 278
281 280 279 278 277 276 275 274 272 271 270 270 270 270 269 268 268 267 267 266 266 265 264 262 260 257 254 253 252 252 252 253 253 252 253 254 255 254 253 253 252 251 250 249 248 248 249 250 250 251 251 252 252 253 253 253 253 254 255 255 256 256 257 258 259 260 261 262 263 264 265 265 266 267 269 269 270 271 272 273 274 274 275 276 277
281 280 279 278 278 277 276 274 272 271 270 270 270 270 269 268 267 267 266 265 265 264 263 262 260 258 255 254 252 252 252 252 252 252 252 252 253 253 252 252 252 251 250 248 247 247 248 248 249 249 250 251 252 252 253 253 253 254 254 254 255 256 257 258 258 259 260 262 263 264 265 266 267 268 269 269 270 271 271 272 273 273 274 275 276
283 281 280 279 278 277 276 274 273 272 271 270 270 270 269 269 268 267 266 265 264 263 262 261 260 258 256 254 253 252 251 250 250 251 251 251 251 251 251 251 252 251 250 248 247 247 248 248 248 249 249 250 251 251 252 253 253 254 254 255 255 255 256 257 258 259 261 262 263 264 265 266 267 267 268 268 269 270 270 271 271 272 273 274 276
284 283 281 280 279 277 276 275 274 273 272 271 270 269 269 269 268 267 266 265 264 263 261 260 259 258 256 254 253 251 250 250 250 249 249 250 250 250 251 251 251 251 250 247 246 246 247 248 248 248 249 249 250 251 252 252 253 254 255 255 255 255 256 257 259 260 262 263 264 265 265 266 266 267 267 268 269 269 270 270 271 272 273 274 275
284 283 282 281 280 278 277 275 274 274 273 272 271 270 269 268 268 267 266 265 264 262 261 260 258 257 256 254 253 251 250 249 248 248 248 248 248 249 249 249 250 249 248 246 245 245 246 247 247 247 248 249 250 251 252 253 253 254 254 255 255 256 257 258 259 261 262 263 264 265 265 265 266 266 267 267 268 269 269 270 271 272 273 274 276
284 283 282 281 280 279 278 277 275 274 273 272 271 271 270 268 267 266 266 265 264 263 262 260 259 257 255 254 252 251 249 248 247 247 247 246 246 246 247 247 248 247 247 246 244 243 244 246 247 248 249 250 251 252 253 253 254 254 254 255 256 257 257 259 260 261 262 263 263 264 264 265 265 266 266 267 268 269 270 271 272 273 274 275 276
285 284 283 282 280 279 278 277 276 275 274 272 271 270 270 269 268 267 265 264 264 263 262 261 259 257 255 253 252 251 249 248 247 247 247 247 247 246 246 246 246 246 245 245 244 244 245 247 249 250 252 252 252 253 253 253 254 254 255 255 256 256 257 258 259 260 261 262 262 263 264 264 265 265 266 267 268 269 270 271 273 274 275 276 277
285 284 283 282 281 280 279 278 277 276 275 273 272 271 269 269 268 267 266 265 264 263 262 261 260 258 256 254 252 251 249 248 247 247 247 248 247 247 246 245 245 245 244 244 244 245 246 248 250 252 253 253 253 253 253 254 254 255 255 256 256 256 257 257 258 259 260 261 261 262 263 264 265 266 267 268 269 270 271 272 273 274 275 276 277
286 285 284 284 283 281 280 279 279 277 276 275 273 272 270 268 268 267 266 265 264 263 262 261 260 258 257 255 253 252 250 248 247 246 246 247 247 247 247 246 246 245 244 244 244 245 246 248 249 250 251 252 252 252 253 253 254 255 255 255 256 256 256 257 257 258 259 260 261 262 263 264 265 267 267 268 269 270 271 272 273 274 274 275 276
288 287 286 285 284 283 282 280 279 278 278 276 274 273 271 269 268 266 265 264 263 262 261 260 259 258 256 255 254 252 250 249 247 246 246 246 246 247 247 246 246 246 245 244 244 243 244 245 246 248 249 250 250 251 251 252 253 253 254 255 255 256 256 257 258 259 259 261 262 263 264 265 266 267 267 268 269 270 271 271 272 273 274 275 276
289 289 288 287 286 284 283 282 280 279 278 277 276 274 273 271 269 267 265 264 263 262 261 260 259 257 256 254 253 252 251 250 249 247 247 246 247 247 247 247 247 246 246 245 245 244 244 244 245 246 248 249 250 250 251 252 253 253 254 254 255 256 257 257 258 259 260 261 262 263 264 265 266 267 267 268 268 269 270 271 272 272 273 274 275
289 289 289 288 287 286 285 283 282 280 279 277 276 275 273 272 270 268 266 264 263 261 260 259 258 257 256 254 252 251 250 249 249 248 248 247 247 247 247 247 248 247 247 247 246 246 245 245 245 246 248 249 250 251 252 252 253 254 254 254 255 256 256 257 258 259 260 261 262 263 264 264 265 266 267 267 268 269 270 271 272 272 273 274 275
288 288 288 288 288 287 287 285 283 282 280 278 276 274 273 272 270 268 266 265 263 261 260 259 258 257 256 254 252 251 249 248 248 248 248 248 248 248 248 248 248 248 248 248 248 248 247 247 247 248 248 249 250 251 252 252 253 254 254 255 255 256 257 257 258 259 260 260 261 262 263 264 265 266 266 267 268 269 270 271 272 273 274 274 275
289 288 288 288 287 287 286 286 284 283 281 279 276 274 272 271 270 268 266 265 263 261 260 258 257 256 255 254 253 251 249 248 247 246 246 247 247 248 248 249 249 249 249 249 249 249 249 249 249 250 250 250 251 251 252 253 253 254 255 255 256 257 257 258 259 260 260 261 262 263 263 264 265 266 267 268 269 270 271 272 272 273 273 274 274
Height
10483 10480 10478 10476 10474 10474 10474 10475 10476 10478 10480 10481 10483 10485 10485 10485 10485 10485 10486 10486 10487 10489 10492 10494 10494 10495 10496 10497 10498 10498 10499 10499 10500 10501 10503 10505 10505 10505 10505 10504 10505 10507 10507 10507 10508 10508 10508 10508 10508 10508 10507 10509 10511 10512 10513 10514 10515 10516 10516 10516 10516 10517 10518 10520 10523 10523 10520 10520 10519 10518 10518 10518 10518 10517 10517 10517 10516 10515 10513 10512 10512 10512 10512 10512 10511
10464 10462 10460 10458 10456 10455 10454 10455 10456 10458 10459 10461 10463 10464 10466 10467 10467 10468 10468 10468 10468 10470 10471 10473 10476 10478 10479 10479 10481 10482 10483 10483 10484 10485 10487 10489 10489 10490 10490 10489 10491 10493 10493 10493 10494 10494 10494 10494 10494 10494 10493 10495 10496 10497 10499 10500 10501 10502 10503 10502 10502 10502 10504 10506 10510 10510 10507 10506 10506 10505 10505 10504 10504 10503 10503 10502 10502 10501 10499 10498 10497 10497 10497 10497 10497
10445 10444 10442 10440 10438 10436 10435 10435 10436 10437 10439 10440 10442 10444 10445 10447 10448 10449 10450 10450 10450 10451 10452 10453 10455 10458 10460 10461 10462 10464 10465 10466 10467 10468 10470 10472 10473 10473 10473 10474 10476 10477 10478 10478 10479 10479 10479 10479 10480 10480 10478 10480 10482 10483 10485 10487 10487 10488 10488 10487 10487 10487 10489 10492 10495 10496 10494 10493 10493 10492 10491 10490 10490 10490 10489 10488 10487 10487 10485 10484 10482 10482 10482 10482 10481
10424 10425 10424 10422 10420 10419 10416 10415 10414 10415 10416 10418 10420 10422 10424 10426 10428 10430 10430 10431 10431 10432 10433 10434 10435 10437 10439 10441 10443 10444 10446 10447 10449 10451 10453 10454 10456 10457 10456 10457 10460 10461 10462 10463 10463 10463 10463 10464 10465 10464 10462 10463 10467 10469 10472 10472 10472 10472 10472 10472 10472 10472 10473 10476 10480 10482 10480 10479 10478 10478 10477 10476 10476 10475 10474 10473 10473 10472 10472 10470 10468 10467 10466 10466 10465
10402 10403 10404 10403 10402 10401 10399 10397 10395 10393 10392 10393 10396 10398 10401 10403 10406 10408 10410 10410 10411 10411 10412 10414 10416 10418 10419 10421 10423 10425 10427 10428 10430 10432 10434 10436 10438 10439 10439 10441 10443 10444 10445 10446 10447 10446 10447 10448 10449 10447 10446 10448 10452 10455 10456 10456 10456 10456 10457 10457 10456 10457 10457 10459 10463 10466 10466 10464 10463 10463 10463 10462 10461 10461 10460 10459 10458 10458 10457 10456 10454 10452 10451 10450 10450
10380 10381 10382 10383 10382 10381 10380 10380 10378 10375 10373 10371 10371 10373 10376 10379 10382 10385 10387 10389 10390 10391 10392 10393 10395 10397 10399 10401 10403 10406 10408 10410 10412 10414 10415 10416 10419 10420 10422 10423 10425 10427 10428 10428 10428 10429 10430 10432 10432 10430 10430 10434 10438 10440 10440 10440 10440 10440 10441 10441 10441 10442 10444 10445 10446 10448 10449 10449 10448 10448 10448 10448 10447 10447 10446 10445 10444 10444 10443 10441 10439 10437 10436 10435 10435
10357 10358 10360 10361 10361 10361 10361 10361 10360 10359 10357 10354 10352 10351 10352 10355 10359 10362 10365 10368 10370 10371 10372 10374 10376 10378 10380 10382 10384 10386 10388 10391 10393 10395 10396 10397 10399 10400 10402 10404 10406 10408 10409 10410 10410 10411 10412 10414 10415 10414 10416 10421 10423 10424 10424 10424 10425 10425 10426 10426 10426 10427 10430 10431 10430 10429 10431 10433 10432 10432 10433 10434 10434 10434 10432 10430 10430 10430 10428 10426 10424 10422 10420 10420 10421
10336 10336 10337 10338 10340 10341 10341 10341 10341 10341 10340 10339 10336 10334 10333 10333 10335 10339 10343 10347 10350 10352 10353 10354 10356 10359 10361 10363 10365 10367 10369 10371 10373 10375 10377 10378 10379 10380 10382 10384 10386 10388 10390 10392 10392 10394 10396 10397 10397 10398 10402 10406 10407 10407 10408 10409 10410 10411 10411 10411 10410 10412 10414 10416 10415 10413 10414 10415 10416 10417 10418 10419 10420 10421 10419 10416 10416 10415 10413 10411 10410 10407 10404 10404 10405
10315 10316 10316 10317 10319 10320 10321 10322 10322 10321 10322 10322 10320 10319 10317 10315 10315 10317 10320 10324 10329 10333 10334 10335 10337 10339 10342 10344 10347 10349 10350 10352 10354 10354 10356 10358 10359 10361 10362 10364 10367 10369 10372 10374 10375 10377 10379 10380 10381 10382 10384 10388 10389 10390 10392 10393 10394 10396 10397 10395 10395 10395 10397 10399 10400 10399 10397 10397 10399 10401 10403 10404 10405 10405 10405 10403 10402 10401 10399 10396 10395 10393 10390 10388 10389
10297 10296 10297 10298 10299 10300 10301 10302 10303 10303 10302 10302 10303 10302 10301 10300 10299 10299 10299 10302 10306 10311 10315 10317 10318 10320 10322 10325 10328 10330 10332 10333 10334 10334 10336 10338 10339 10340 10343 10345 10348 10351 10354 10357 10358 10360 10361 10363 10365 10365 10365 10369 10372 10373 10375 10377 10378 10380 10380 10379 10379 10380 10381 10382 10384 10383 10381 10381 10382 10383 10386 10388 10388 10388 10389 10388 10388 10387 10385 10382 10381 10379 10376 10373 10374
10280 10278 10278 10278 10278 10279 10281 10282 10283 10283 10283 10283 10283 10284 10284 10283 10283 10282 10283 10283 10285 10289 10292 10296 10299 10301 10303 10306 10309 10312 10314 10315 10316 10316 10317 10318 10319 10321 10323 10326 10328 10331 10336 10339 10341 10343 10344 10347 10350 10349 10349 10353 10356 10356 10358 10361 10363 10363 10363 10363 10364 10365 10365 10366 10367 10367 10366 10366 10365 10366 10369 10371 10371 10371 10372 10373 10373 10372 10371 10369 10367 10365 10361 10358 10358
10262 10261 10261 10261 10261 10261 10261 10262 10264 10264 10264 10264 10264 10265 10266 10267 10266 10266 10266 10267 10267 10269 10271 10274 10277 10280 10284 10288 10291 10293 10296 10297 10298 10299 10300 10300 10301 10302 10304 10307 10309 10312 10317 10321 10323 10325 10328 10331 10334 10333 10334 10337 10339 10340 10343 10346 10346 10346 10347 10347 10348 10350 10351 10351 10351 10350 10351 10351 10350 10351 10353 10353 10354 10356 10356 10357 10357 10357 10356 10354 10352 10349 10346 10343 10343
10243 10243 10243 10243 10244 10244 10244 10245 10245 10245 10245 10245 10245 10246 10247 10248 10249 10249 10249 10250 10250 10252 10253 10254 10257 10259 10263 10267 10271 10275 10278 10279 10280 10282 10283 10284 10284 10284 10285 10288 10291 10294 10298 10302 10304 10307 10311 10314 10317 10318 10319 10321 10323 10325 10328 10330 10330 10330 10331 10331 10332 10334 10336 10338 10338 10337 10337 10336 10337 10338 10337 10337 10339 10340 10340 10341 10341 10341 10340 10339 10337 10334 10331 10328 10328
10225 10224 10225 10225 10226 10226 10227 10227 10227 10227 10226 10226 10227 10228 10228 10228 10230 10231 10232 10234 10233 10234 10236 10238 10240 10241 10243 10246 10251 10255 10259 10260 10261 10264 10266 10267 10268 10268 10269 10271 10274 10277 10281 10284 10287 10290 10293 10296 10300 10302 10304 10305 10308 10311 10312 10313 10314 10314 10314 10315 10316 10319 10322 10325 10327 10326 10324 10322 10322 10322 10321 10322 10324 10325 10324 10324 10325 10325 10325 10324 10323 10320 10316 10314 10314
10204 10204 10206 10207 10208 10207 10207 10208 10209 10209 10209 10208 10209 10209 10209 10210 10211 10212 10214 10216 10217 10218 10219 10220 10223 10225 10226 10228 10232 10236 10239 10239 10242 10245 10248 10249 10250 10251 10254 10256 10258 10261 10265 10268 10271 10273 10275 10279 10282 10285 10288 10290 10293 10296 10297 10297 10298 10297 10297 10300 10302 10305 10309 10312 10313 10313 10311 10309 10307 10306 10306 10307 10308 10309 10309 10308 10308 10309 10310 10310 10308 10305 10302 10301 10300
10184 10183 10185 10189 10189 10188 10187 10188 10189 10190 10190 10191 10192 10191 10191 10192 10193 10193 10195 10198 10200 10202 10202 10203 10205 10207 10209 10211 10214 10219 10221 10220 10222 10226 10228 10230 10232 10234 10238 10241 10243 10247 10249 10252 10255 10257 10259 10262 10266 10269 10272 10275 10278 10280 10280 10281 10280 10280 10283 10286 10289 10292 10295 10297 10297 10297 10296 10295 10293 10292 10291 10291 10291 10293 10293 10292 10292 10293 10294 10295 10293 10291 10288 10288 10287
10164 10164 10167 10170 10170 10169 10168 10168 10169 10170 10170 10172 10174 10175 10174 10175 10175 10175 10176 10180 10182 10184 10185 10187 10188 10189 10191 10193 10195 10200 10204 10203 10204 10207 10210 10211 10213 10217 10221 10224 10227 10231 10234 10236 10238 10241 10244 10246 10249 10252 10256 10259 10262 10262 10262 10263 10264 10265 10268 10271 10273 10277 10280 10281 10281 10281 10280 10279 10278 10276 10276 10276 10276 10278 10278 10277 10277 10278 10279 10279 10278 10277 10276 10274 10272
10143 10146 10150 10152 10151 10150 10148 10148 10149 10150 10151 10152 10154 10156 10157 10158 10158 10157 10158 10161 10165 10166 10167 10170 10172 10173 10173 10175 10177 10180 10185 10186 10186 10189 10192 10193 10195 10199 10202 10206 10211 10215 10218 10220 10222 10225 10229 10230 10232 10236 10240 10242 10244 10244 10244 10247 10248 10249 10252 10256 10258 10262 10264 10264 10264 10264 10263 10262 10261 10260 10260 10261 10262 10263 10264 10263 10263 10264 10263 10263 10264 10264 10262 10259 10257
10124 10129 10132 10133 10132 10130 10128 10128 10129 10130 10131 10132 10133 10136 10138 10140 10141 10140 10141 10143 10146 10148 10150 10152 10156 10157 10157 10157 10159 10161 10165 10167 10167 10169 10174 10176 10178 10181 10184 10188 10194 10198 10201 10203 10205 10209 10213 10214 10216 10220 10222 10224 10226 10227 10228 10230 10232 10233 10236 10240 10244 10248 10249 10247 10246 10247 10245 10244 10244 10245 10245 10246 10248 10250 10250 10248 10249 10249 10247 10246 10249 10249 10247 10245 10243
10108 10111 10113 10112 10111 10109 10108 10107 10108 10109 10110 10112 10114 10115 10118 10120 10122 10123 10124 10125 10128 10131 10133 10135 10139 10142 10141 10141 10143 10144 10146 10148 10149 10150 10154 10157 10161 10164 10167 10172 10178 10181 10183 10185 10188 10192 10196 10198 10201 10203 10205 10207 10209 10209 10211 10213 10215 10216 10219 10225 10231 10234 10232 10229 10229 10229 10227 10227 10228 10230 10231 10233 10234 10236 10235 10233 10234 10234 10231 10231 10233 10233 10231 10231 10230
10093 10093 10093 10092 10090 10089 10087 10086 10087 10088 10090 10092 10095 10098 10099 10100 10102 10105 10106 10108 10110 10113 10116 10118 10120 10125 10126 10125 10127 10129 10130 10131 10132 10132 10134 10138 10142 10145 10150 10157 10161 10163 10165 10169 10173 10176 10179 10182 10185 10187 10188 10190 10191 10191 10193 10196 10199 10201 10204 10210 10215 10215 10212 10213 10213 10212 10211 10212 10215 10216 10216 10217 10219 10220 10220 10219 10219 10219 10217 10216 10217 10217 10217 10216 10215
10076 10075 10075 10074 10071 10068 10066 10065 10066 10068 10070 10072 10076 10081 10083 10082 10083 10087 10088 10090 10092 10094 10098 10101 10102 10107 10110 10109 10110 10114 10115 10115 10117 10118 10118 10120 10123 10127 10134 10141 10144 10145 10150 10155 10158 10161 10163 10165 10169 10170 10171 10173 10175 10176 10178 10180 10183 10187 10191 10194 10196 10196 10196 10197 10197 10196 10197 10199 10200 10200 10201 10203 10204 10204 10204 10204 10203 10204 10203 10202 10202 10202 10202 10201 10200
10058 10059 10058 10055 10052 10049 10047 10047 10048 10050 10052 10053 10056 10062 10066 10065 10065 10068 10070 10071 10074 10076 10080 10082 10083 10087 10092 10092 10092 10095 10097 10098 10101 10104 10105 10106 10107 10110 10117 10123 10126 10129 10134 10140 10144 10146 10147 10149 10151 10153 10154 10158 10161 10162 10163 10164 10168 10174 10177 10177 10179 10180 10182 10182 10181 10182 10184 10184 10185 10186 10187 10188 10188 10187 10186 10187 10187 10188 10187 10187 10187 10187 10186 10185 10184
10040 10041 10039 10037 10035 10032 10030 10030 10031 10031 10033 10035 10037 10043 10047 10046 10046 10049 10050 10052 10055 10059 10062 10063 10064 10067 10072 10074 10074 10076 10078 10079 10083 10087 10090 10092 10094 10096 10100 10106 10109 10112 10117 10123 10128 10130 10132 10133 10135 10136 10139 10142 10145 10146 10148 10150 10155 10160 10163 10162 10162 10166 10168 10168 10168 10169 10169 10170 10172 10174 10173 10172 10170 10169 10168 10169 10171 10171 10171 10171 10171 10172 10171 10171 10169
10023 10022 10021 10019 10017 10014 10012 10012 10012 10011 10012 10015 10018 10023 10026 10026 10027 10029 10030 10032 10037 10042 10044 10045 10045 10047 10052 10055 10058 10059 10059 10058 10061 10067 10072 10075 10078 10081 10083 10087 10091 10095 10100 10105 10109 10113 10116 10116 10118 10120 10123 10125 10128 10130 10133 10136 10140 10145 10148 10146 10146 10152 10155 10154 10153 10154 10155 10157 10159 10159 10158 10156 10153 10151 10152 10155 10156 10155 10155 10155 10155 10155 10156 10155 10154
10006 10006 10003 10001 9999 9997 9995 9996 9996 9994 9994 9995 9998 10002 10005 10005 10007 10010 10010 10011 10017 10022 10025 10027 10028 10030 10033 10037 10040 10042 10043 10041 10043 10047 10051 10055 10061 10064 10066 10068 10072 10077 10084 10089 10093 10097 10099 10099 10102 10104 10105 10108 10111 10114 10118 10121 10123 10128 10133 10132 10132 10138 10141 10139 10139 10141 10142 10143 10143 10143 10143 10141 10137 10136 10139 10141 10140 10139 10140 10140 10140 10139 10139 10139 10138
9991 9990 9987 9983 9981 9980 9978 9980 9980 9979 9978 9977 9978 9981 9984 9984 9987 9990 9991 9992 9995 10000 10004 10007 10010 10012 10015 10019 10022 10024 10026 10027 10029 10031 10033 10035 10040 10043 10045 10049 10054 10061 10068 10074 10077 10080 10081 10082 10084 10087 10089 10093 10096 10099 10102 10105 10107 10113 10118 10118 10119 10123 10126 10124 10125 10127 10126 10125 10127 10128 10127 10125 10123 10124 10126 10125 10123 10123 10124 10125 10125 10125 10124 10123 10123
9973 9973 9970 9966 9965 9964 9962 9963 9964 9964 9963 9962 9962 9963 9965 9965 9968 9973 9975 9974 9976 9981 9985 9988 9992 9994 9997 10000 10003 10006 10009 10013 10016 10017 10016 10016 10019 10021 10025 10033 10040 10045 10051 10056 10058 10060 10064 10066 10069 10072 10076 10079 10082 10084 10086 10088 10091 10097 10103 10105 10105 10109 10112 10111 10110 10110 10109 10110 10111 10111 10109 10108 10110 10112 10111 10109 10109 10109 10110 10109 10109 10110 10109 10107 10106
9957 9956 9954 9952 9951 9950 9949 9949 9948 9948 9948 9948 9947 9948 9949 9949 9952 9957 9960 9959 9959 9964 9968 9971 9976 9979 9979 9982 9986 9989 9994 9999 9999 9997 9996 9998 10001 10005 10009 10015 10022 10026 10032 10037 10039 10042 10048 10053 10056 10059 10063 10065 10067 10069 10071 10072 10075 10081 10088 10090 10091 10094 10097 10097 10095 10094 10094 10094 10094 10093 10092 10094 10096 10097 10095 10095 10096 10096 10095 10094 10094 10095 10094 10092 10090
9942 9940 9939 9938 9937 9937 9936 9935 9933 9932 9933 9933 9932 9933 9933 9934 9935 9940 9943 9942 9942 9945 9950 9954 9959 9961 9963 9968 9972 9974 9978 9982 9979 9976 9979 9981 9984 9989 9995 9998 10002 10006 10011 10018 10023 10026 10032 10039 10042 10044 10047 10050 10053 10056 10057 10058 10061 10066 10072 10075 10077 10079 10081 10081 10080 10079 10078 10078 10077 10078 10079 10081 10082 10081 10081 10081 10081 10080 10080 10080 10080 10079 10079 10077 10075
9927 9925 9924 9924 9923 9921 9920 9920 9918 9918 9918 9917 9918 9918 9918 9918 9919 9923 9926 9926 9925 9927 9932 9937 9941 9944 9946 9953 9958 9959 9963 9965 9960 9958 9963 9965 9965 9971 9978 9982 9985 9988 9992 9999 10006 10011 10016 10022 10026 10029 10032 10036 10039 10042 10044 10045 10047 10050 10055 10059 10062 10063 10065 10065 10065 10063 10062 10062 10063 10065 10066 10067 10067 10067 10066 10066 10067 10066 10065 10065 10065 10064 10063 10062 10060
9913 9911 9910 9910 9909 9906 9904 9904 9904 9904 9904 9903 9903 9904 9904 9904 9905 9906 9910 9913 9912 9912 9915 9919 9925 9928 9931 9936 9941 9943 9947 9949 9946 9944 9947 9949 9949 9954 9960 9964 9969 9972 9975 9982 9991 9996 10000 10005 10010 10013 10017 10022 10025 10027 10030 10032 10032 10034 10038 10042 10045 10048 10050 10050 10048 10046 10046 10048 10050 10052 10053 10054 10054 10053 10052 10052 10052 10051 10050 10049 10050 10049 10048 10046 10045
9900 9897 9896 9897 9896 9893 9891 9889 9889 9889 9890 9890 9889 9890 9890 9891 9891 9891 9894 9898 9900 9901 9902 9904 9908 9912 9915 9919 9923 9926 9930 9932 9932 9931 9934 9935 9935 9937 9942 9947 9952 9955 9959 9969 9979 9983 9986 9990 9994 9998 10001 10005 10009 10012 10015 10017 10017 10018 10022 10025 10028 10031 10034 10033 10030 10030 10032 10035 10037 10039 10040 10040 10040 10039 10038 10036 10036 10035 10034 10035 10035 10034 10033 10031 10030
9886 9884 9883 9883 9882 9880 9878 9876 9875 9875 9877 9877 9877 9877 9877 9878 9879 9878 9879 9882 9886 9889 9890 9890 9892 9897 9902 9904 9907 9911 9913 9915 9916 9918 9920 9921 9922 9923 9925 9930 9936 9940 9948 9960 9969 9971 9973 9976 9980 9984 9987 9989 9993 9997 9999 10000 10001 10003 10005 10008 10012 10016 10019 10017 10014 10016 10019 10021 10023 10025 10026 10026 10025 10024 10023 10022 10021 10020 10020 10020 10020 10019 10017 10015 10014
9873 9871 9870 9869 9869 9867 9865 9864 9863 9862 9863 9864 9865 9865 9865 9865 9866 9866 9866 9867 9870 9874 9877 9878 9880 9884 9888 9891 9893 9896 9898 9899 9900 9903 9905 9907 9908 9909 9911 9918 9925 9931 9939 9951 9958 9958 9958 9961 9964 9968 9972 9973 9975 9978 9980 9982 9984 9987 9989 9993 9997 10001 10002 10000 9999 10002 10005 10007 10008 10010 10011 10011 10011 10010 10009 10008 10007 10006 10006 10006 10006 10004 10002 10000 9998
9861 9860 9858 9857 9855 9854 9854 9853 9852 9851 9851 9851 9852 9853 9853 9853 9853 9854 9854 9855 9857 9860 9863 9867 9869 9871 9874 9877 9879 9881 9883 9884 9886 9888 9889 9892 9895 9897 9901 9909 9916 9920 9927 9938 9944 9943 9942 9945 9949 9953 9956 9957 9958 9960 9963 9966 9969 9971 9974 9978 9981 9984 9984 9985 9986 9988 9990 9992 9993 9994 9996 9997 9997 9996 9995 9994 9992 9991 9992 9991 9990 9989 9987 9985 9983
9850 9848 9846 9844 9843 9843 9844 9843 9842 9840 9839 9839 9839 9840 9841 9842 9843 9843 9843 9843 9844 9846 9849 9853 9856 9859 9862 9863 9865 9867 9869 9871 9873 9875 9876 9879 9882 9887 9893 9899 9902 9906 9914 9924 9929 9929 9928 9930 9935 9938 9940 9939 9939 9943 9948 9951 9954 9956 9959 9963 9965 9967 9969 9971 9973 9974 9975 9976 9977 9979 9980 9981 9981 9981 9980 9979 9978 9978 9977 9977 9975 9974 9972 9970 9968
9840 9837 9835 9832 9832 9833 9833 9832 9831 9830 9829 9828 9828 9828 9829 9830 9831 9832 9832 9832 9833 9834 9837 9839 9843 9846 9849 9851 9852 9854 9857 9859 9861 9864 9865 9867 9870 9876 9882 9884 9885 9891 9900 9909 9914 9915 9914 9916 9919 9921 9922 9922 9923 9926 9932 9936 9940 9943 9945 9948 9950 9953 9955 9957 9959 9960 9960 9961 9962 9963 9964 9965 9966 9966 9965 9965 9964 9964 9963 9962 9961 9960 9958 9956 9954
9829 9827 9825 9823 9823 9822 9821 9820 9819 9819 9819 9819 9818 9818 9818 9819 9820 9820 9821 9821 9822 9823 9825 9828 9830 9834 9836 9839 9841 9844 9846 9848 9850 9851 9853 9855 9857 9862 9867 9869 9871 9877 9885 9894 9900 9902 9901 9902 9904 9905 9905 9906 9907 9910 9915 9919 9924 9928 9931 9934 9938 9941 9942 9943 9944 9945 9945 9946 9948 9949 9950 9951 9951 9951 9951 9951 9950 9949 9949 9948 9947 9945 9944 9942 9940
9819 9817 9816 9815 9814 9812 9811 9809 9808 9808 9809 9809 9809 9808 9808 9808 9809 9810 9811 9811 9812 9813 9815 9817 9819 9822 9825 9827 9830 9832 9834 9836 9837 9838 9841 9842 9844 9848 9852 9856 9860 9865 9872 9880 9887 9888 9887 9887 9889 9889 9889 9890 9891 9894 9899 9904 9909 9914 9919 9922 9926 9928 9928 9928 9929 9931 9932 9933 9935 9936 9937 9938 9937 9937 9937 9937 9936 9935 9934 9933 9932 9931 9930 9929 9927
9808 9807 9806 9805 9804 9803 9802 9800 9798 9798 9798 9799 9799 9799 9798 9798 9799 9799 9800 9801 9802 9803 9805 9806 9808 9811 9813 9816 9819 9821 9823 9824 9826 9827 9829 9830 9832 9836 9840 9844 9848 9853 9859 9866 9871 9872 9871 9872 9873 9873 9872 9872 9874 9880 9887 9893 9899 9903 9906 9909 9912 9913 9914 9914 9915 9917 9918 9920 9921 9922 9923 9923 9923 9923 9923 9922 9922 9921 9920 9919 9918 9918 9917 9916 9915
9800 9798 9797 9796 9795 9794 9792 9791 9790 9789 9789 9789 9789 9789 9789 9789 9789 9789 9790 9791 9792 9793 9794 9796 9798 9800 9802 9805 9808 9810 9812 9813 9814 9815 9817 9818 9821 9825 9829 9832 9836 9840 9845 9851 9855 9856 9856 9855 9854 9853 9854 9857 9864 9871 9878 9883 9888 9891 9893 9895 9897 9898 9900 9901 9902 9903 9905 9906 9907 9908 9908 9909 9909 9909 9909 9908 9907 9907 9906 9905 9905 9904 9904 9903 9902
9792 9790 9788 9787 9786 9785 9783 9782 9782 9781 9780 9780 9780 9779 9779 9780 9780 9780 9781 9781 9782 9783 9784 9786 9788 9790 9792 9794 9796 9799 9800 9802 9803 9803 9804 9806 9809 9814 9817 9820 9823 9827 9831 9836 9839 9841 9840 9838 9836 9837 9842 9850 9857 9864 9868 9873 9876 9878 9880 9881 9883 9885 9887 9888 9889 9890 9890 9891 9892 9893 9894 9894 9894 9894 9894 9894 9893 9892 9892 9891 9891 9890 9890 9889 9888
9783 9782 9780 9779 9778 9776 9775 9774 9773 9772 9772 9772 9771 9771 9771 9770 9771 9771 9772 9772 9773 9774 9775 9776 9778 9780 9782 9784 9786 9787 9789 9791 9792 9793 9794 9795 9799 9803 9806 9809 9811 9815 9819 9823 9825 9827 9826 9825 9826 9831 9837 9843 9849 9853 9856 9859 9861 9863 9865 9867 9869 9871 9873 9874 9874 9875 9876 9877 9879 9879 9880 9880 9880 9880 9880 9879 9879 9878 9878 9877 9877 9877 9876 9875 9874
9775 9774 9772 9771 9770 9769 9767 9766 9765 9764 9763 9763 9763 9763 9762 9762 9762 9762 9763 9763 9764 9765 9766 9767 9768 9770 9772 9774 9775 9777 9779 9781 9783 9784 9784 9786 9789 9792 9795 9798 9801 9804 9808 9811 9814 9815 9816 9818 9821 9825 9829 9833 9837 9840 9842 9844 9846 9849 9851 9853 9855 9857 9859 9860 9861 9862 9863 9864 9865 9865 9865 9866 9866 9866 9866 9865 9864 9864 9864 9863 9864 9863 9862 9862 9861
9768 9766 9764 9763 9762 9760 9759 9758 9757 9756 9755 9755 9754 9754 9754 9754 9754 9754 9754 9755 9755 9756 9757 9758 9759 9761 9763 9764 9766 9768 9769 9771 9773 9773 9774 9776 9778 9781 9784 9787 9790 9794 9797 9801 9804 9807 9809 9811 9814 9815 9817 9821 9824 9826 9828 9830 9832 9835 9837 9839 9841 9843 9844 9845 9847 9848 9849 9850 9851 9851 9851 9852 9852 9852 9852 9851 9851 9851 9851 9850 9850 9850 9848 9848 9847
9759 9758 9757 9755 9754 9752 9752 9751 9749 9748 9747 9746 9746 9745 9745 9745 9745 9746 9746 9746 9747 9747 9748 9749 9750 9752 9754 9755 9756 9758 9759 9761 9762 9763 9765 9766 9768 9770 9773 9776 9779 9783 9786 9789 9793 9796 9799 9800 9802 9803 9805 9808 9809 9811 9814 9816 9819 9821 9824 9825 9827 9829 9830 9832 9833 9834 9835 9836 9836 9836 9837 9837 9837 9838 9838 9838 9838 9838 9837 9836 9836 9836 9835 9834 9833
9751 9750 9749 9748 9747 9745 9744 9743 9742 9741 9740 9739 9738 9737 9737 9737 9737 9737 9737 9738 9738 9739 9740 9741 9742 9743 9745 9746 9747 9749 9750 9751 9753 9754 9755 9757 9759 9761 9763 9766 9769 9772 9775 9778 9781 9784 9787 9789 9791 9792 9794 9795 9797 9799 9802 9804 9806 9808 9811 9813 9814 9816 9817 9818 9820 9821 9821 9822 9822 9822 9823 9823 9823 9824 9825 9825 9825 9825 9824 9823 9823 9823 9821 9820 9819
9745 9743 9742 9740 9739 9738 9737 9736 9735 9734 9733 9732 9731 9730 9729 9729 9729 9729 9729 9730 9730 9731 9731 9732 9733 9734 9736 9737 9739 9740 9741 9743 9744 9745 9746 9748 9749 9751 9753 9756 9758 9761 9764 9767 9770 9773 9776 9778 9780 9782 9783 9785 9787 9789 9791 9793 9794 9796 9798 9800 9802 9803 9805 9806 9807 9808 9808 9809 9809 9809 9809 9810 9811 9811 9812 9812 9812 9812 9811 9810 9810 9809 9807 9806 9804
9739 9737 9736 9734 9732 9731 9730 9729 9728 9727 9726 9725 9724 9723 9722 9722 9722 9721 9721 9722 9722 9723 9723 9724 9725 9726 9727 9728 9730 9731 9733 9734 9735 9736 9738 9739 9740 9742 9744 9746 9748 9751 9753 9756 9759 9761 9764 9767 9769 9771 9773 9775 9777 9778 9780 9781 9783 9784 9786 9788 9790 9791 9792 9793 9794 9795 9795 9796 9796 9796 9797 9798 9798 9799 9799 9798 9798 9798 9798 9797 9796 9794 9793 9791 9790
9732 9731 9730 9728 9727 9725 9723 9722 9721 9720 9719 9718 9717 9717 9716 9715 9714 9714 9714 9714 9714 9715 9716 9716 9717 9718 9719 9720 9721 9723 9724 9725 9726 9728 9729 9731 9732 9734 9735 9737 9739 9741 9743 9745 9748 9750 9753 9755 9758 9761 9763 9764 9766 9768 9769 9771 9772 9773 9775 9776 9777 9778 9779 9780 9781 9782 9782 9782 9783 9783 9784 9785 9785 9785 9785 9785 9785 9785 9784 9783 9781 9779 9778 9776 9775